Weather past 2 weeks in Mamoutzou, Mayotte

Now
75 °F

Mild.


Feels Like: 76 °F
Forecast: 72 / 79 °F
Wind: 7 mph from South

Location: Dzaoudzi / Pamanzi Mayotte

Current Time: Sep 21, 2014 at 3:36:34 AM

Latest Report: Sep 21, 2014 at 3:00 AM


Visibility: N/A

Pressure: 29.98 "Hg

Humidity: 78%

Dew point: 68 °F

Location of MamoutzouLocation

Historic Weather in Mamoutzou — Graph

°F

Mamoutzou temperature yesterday

Maximum temperature yesterday: 84 °F (at 12:00 PM)
Minimum temperature yesterday: 72 °F (at 12:00 AM)
Average temperature yesterday: 77 °F

Past Weeks' High & Low Weather Summary

 TemperatureHumidityPressure
High86 °F (Sep 7, 11:30 AM)94% (Sep 10, 4:30 AM)30.12 "Hg (Sep 10, 4:30 AM)
Low70 °F (Sep 10, 4:30 AM)55% (Sep 7, 12:00 PM)29.95 "Hg (Sep 17, 3:00 AM)
Average78 °F74%30.04 "Hg
* Reported Sep 6 2:00 AM — Sep 21 2:30 AM, Mamoutzou, Weather by CustomWeather, © 2014

Note: Actual official high and low records may vary slightly from our data, if they occured in-between our weather recording intervals... More about our weather records

Advertising

Mamoutzou weather history for previous 24 hours

 ConditionsComfort  
Time TempWeatherWind HumidityBarometerVisibility
2:30 AM
Sep 21
73 °FMild.8 mph83%29.98 "HgN/A
2:00 AM72 °FMild.3 mph83%29.98 "HgN/A
1:30 AM73 °FMild.3 mph78%29.98 "HgN/A
1:00 AM73 °FMild.7 mph83%29.98 "HgN/A
12:30 AM73 °FMild.7 mph83%30.01 "HgN/A
12:00 AM72 °FMild.3 mph83%30.01 "HgN/A
11:30 PM
Sep 20
73 °FMild.8 mph83%30.01 "HgN/A
11:00 PM75 °FMild.9 mph78%30.04 "HgN/A
10:30 PM75 °FPassing clouds.7 mph83%30.04 "HgN/A
10:00 PM75 °FPassing clouds.3 mph78%30.04 "HgN/A
9:30 PM75 °FMild.6 mph78%30.04 "HgN/A
9:00 PM75 °FMild.6 mph74%30.04 "HgN/A
4:30 PM81 °FPassing clouds.15 mph66%29.98 "HgN/A
4:05 PM81 °FPassing clouds.15 mph70%29.98 "HgN/A
3:30 PM82 °FPassing clouds.14 mph62%29.98 "HgN/A
3:04 PM82 °FPassing clouds.13 mph66%29.98 "HgN/A
2:38 PM82 °FScattered clouds.13 mph62%29.98 "HgN/A
2:00 PM82 °FScattered clouds.13 mph66%29.98 "HgN/A
1:30 PM82 °FScattered clouds.15 mph62%30.01 "HgN/A
1:00 PM82 °FScattered clouds.12 mph62%30.01 "HgN/A
12:30 PM82 °FScattered clouds.12 mph62%30.01 "HgN/A
12:00 PM84 °FPassing clouds.7 mph58%30.01 "HgN/A
11:30 AM82 °FPassing clouds.7 mph62%30.04 "HgN/A
11:00 AM82 °FPassing clouds.7 mph62%30.04 "HgN/A
10:30 AM82 °FPassing clouds.8 mph62%30.07 "HgN/A
10:00 AM82 °FPassing clouds.6 mph66%30.07 "HgN/A
9:30 AM82 °FScattered clouds.5 mph62%30.07 "HgN/A
9:00 AM81 °FScattered clouds.6 mph66%30.07 "HgN/A
8:30 AM81 °FPassing clouds.6 mph66%30.07 "HgN/A
8:00 AM79 °FPassing clouds.6 mph74%30.07 "HgN/A
7:30 AM79 °FPassing clouds.5 mph74%30.04 "HgN/A
7:00 AM75 °FScattered clouds.8 mph83%30.04 "HgN/A
6:30 AM72 °FPassing clouds.6 mph88%30.04 "HgN/A
6:00 AM72 °FPassing clouds.5 mph88%30.01 "HgN/A
5:30 AM72 °FPassing clouds.6 mph88%30.01 "HgN/A
5:00 AM72 °FPassing clouds.6 mph83%30.01 "HgN/A
4:00 AM72 °FPartly cloudy.2 mph88%30.01 "HgN/A
3:30 AM72 °FPassing clouds.No wind83%29.98 "HgN/A
3:00 AM72 °FMild.2 mph83%29.98 "HgN/A
Weather by CustomWeather, © 2014

See weather overviewHow to use our weather pages